[[{"header":{"parameterUnit":"m.s-1","parameterCategory":1,"la1":30.2991,"la2":30.254,"lo1":-89.0895,"lo2":-89.0444,"dy":0.0017,"dx":0.0017,"nx":28,"ny":28,"refTime":"2024-12-09T03:00:00:Z","depth":0,"parameterNumber":2,"parameterNumberName":"U-component_of_WINDS"},"data":[0,0,0,0,0,0,0,0,0,0,0,0,0,0,0,0,0,0,0,0,0,0,0,0,0,0,0,0,0,0,0,0,0,0,0,0,0,0,0,0,0,0,0,0,0,0,0,0,0,0,0,0,0,0,0,0,0,0,0.1045,0.1044,0,0.0946,0.0945,0.0944,0.0869,0.0869,0.0868,0.0867,0.0761,0.0759,0.0757,0,0,0,0,0,0,0,0,0,0,0,0,0,0.1164,0.1162,0.1045,0.1043,0.1042,0.0946,0.0945,0.0943,0.0869,0.0869,0.0868,0.0867,0.0762,0.076,0.0757,0,0,0,0,0,0,0,0,0,0,0,0,0,0.1094,0.1162,0.1045,0.0994,0.0988,0.0946,0.0945,0.0943,0.0869,0.0868,0.0867,0.0867,0.0763,0.076,0.0757,0.0756,0,0,0.0747,0.0745,0,0,0,0,0,0,0,0,0.1098,0.1089,0.1003,0.0997,0.0991,0.0919,0.0948,0.088,0.087,0.0914,0.0867,0.0866,0.0814,0.0807,0.079,0.0751,0.0747,0.0746,0.0744,0.0743,0.0742,0,0,0,0,0,0,0,0.1103,0.1093,0.1005,0.1001,0.0994,0.0974,0.0963,0.0935,0.0871,0.091,0.0905,0.0894,0.0811,0.0794,0.0787,0.0745,0.0746,0.0743,0.0741,0.074,0.0701,0.0702,0,0,0,0,0,0,0.1116,0.1098,0.1009,0.1002,0.1043,0.0973,0.096,0.0943,0.0871,0.0859,0.0895,0.0891,0.08,0.0791,0.0783,0.0779,0.0743,0.074,0.0738,0.07,0.0701,0.0702,0,0,0,0,0,0,0.1119,0.1109,0.1012,0.1048,0.1035,0.0972,0.0953,0.0942,0.0924,0.086,0.0848,0.089,0.0799,0.0788,0.0764,0.0775,0.0738,0.0735,0.0699,0.0701,0.0702,0.0771,0,0,0,0,0,0,0.1123,0.111,0.1111,0.1049,0.1033,0.0997,0.0953,0.094,0.0919,0.0913,0.0851,0.084,0.0797,0.0769,0.0761,0.0769,0.0733,0.0698,0.07,0.0701,0.0767,0.0774,0.0781,0,0,0,0,0,0.1127,0.1133,0.1111,0.1101,0.1033,0.0997,0.0988,0.094,0.0921,0.092,0.0878,0.0842,0.0774,0.0768,0.0757,0.0765,0.0697,0.0699,0.0701,0.0764,0.0773,0.078,0,0,0,0,0,0,0.1196,0.1124,0.1099,0.1085,0.1048,0.0985,0.0983,0.095,0.0917,0.0912,0.0852,0.0838,0.0821,0.079,0.0784,0.0761,0.0731,0.0731,0.0783,0.079,0.0797,0.0805,0.073,0,0,0,0,0,0.121,0.1189,0.1126,0.112,0.1103,0.1046,0.1029,0.0995,0.0954,0.0937,0.0894,0.0854,0.0823,0.0804,0.0773,0.0762,0.0747,0.0762,0.0768,0.0774,0.0776,0.0768,0.0774,0.0709,0.0709,0.0709,0,0,0.1237,0.1195,0.1186,0.1133,0.11,0.1079,0.1033,0.1012,0.0996,0.0933,0.0909,0.0876,0.0827,0.081,0.08,0.0783,0.079,0.0777,0.0782,0.078,0.0771,0.0777,0.0783,0.0711,0.071,0.071,0,0,0.1278,0.1244,0.1236,0.1204,0.1156,0.1118,0.1116,0.1058,0.1034,0.1009,0.0962,0.094,0.0888,0.0856,0.0833,0.0861,0.0827,0.0852,0.0887,0.088,0.0886,0.089,0.0901,0.0906,0.0853,0.0853,0.0853,0,0.1318,0.1286,0.1235,0.1217,0.1196,0.1139,0.113,0.1101,0.1044,0.103,0.1012,0.0947,0.091,0.0885,0.0893,0.0875,0.0871,0.086,0.0889,0.0893,0.0896,0.0906,0.0911,0.0856,0.0856,0.0856,0.0855,0,0.1339,0.1317,0.1315,0.1265,0.1242,0.1229,0.1175,0.1157,0.1125,0.1089,0.1064,0.1017,0.0976,0.0967,0.0934,0.0937,0.0929,0.0901,0.087,0.0907,0.0916,0.0919,0.0862,0.086,0.0859,0.0858,0,0,0.1421,0.1342,0.1343,0.132,0.1262,0.1243,0.1226,0.1188,0.1175,0.1137,0.1122,0.108,0.1054,0.1027,0.099,0.0984,0.1011,0.0957,0.0955,0.097,0.1013,0.1037,0.1042,0.0987,0.0988,0.0988,0.1018,0,0.1454,0.1424,0.1378,0.1362,0.1342,0.1287,0.1273,0.1235,0.1201,0.1177,0.1137,0.1109,0.1076,0.106,0.1052,0.101,0.1019,0.1007,0.0973,0.0972,0.099,0.1046,0.1071,0.1102,0.1021,0.1021,0.1022,0,0.1489,0.1457,0.144,0.1385,0.1375,0.1363,0.1324,0.1302,0.1257,0.1232,0.1204,0.1163,0.1142,0.1113,0.1083,0.1075,0.1058,0.1035,0.1035,0.1032,0.1001,0.1047,0.111,0.1116,0.1026,0.1026,0.1026,0,0.1554,0.1505,0.149,0.1471,0.1405,0.1399,0.1371,0.1325,0.1305,0.127,0.1256,0.1218,0.1198,0.1169,0.1119,0.1102,0.1095,0.1061,0.1074,0.1076,0.1077,0.1078,0.1141,0.1062,0.1062,0.1062,0.1062,0,0.1597,0.1589,0.1518,0.1509,0.1498,0.1444,0.1434,0.1401,0.1361,0.1344,0.1292,0.1276,0.1211,0.1187,0.1147,0.1129,0.1119,0.1098,0.1089,0.1105,0.1108,0.1094,0.1092,0.1063,0.1063,0.1063,0.1062,0,0.1668,0.162,0.16,0.154,0.1524,0.152,0.1468,0.1456,0.1418,0.1396,0.1387,0.1328,0.1297,0.1244,0.1197,0.117,0.116,0.1142,0.1177,0.1171,0.1188,0.1188,0.1246,0.1251,0.1168,0.1168,0.1169,0,0.1701,0.1694,0.1634,0.1619,0.1594,0.157,0.155,0.1495,0.1476,0.1425,0.1419,0.1385,0.1355,0.1307,0.1259,0.1223,0.1204,0.1227,0.1199,0.1215,0.1207,0.121,0.1209,0.1235,0.1236,0.1237,0.1238,0,0.1763,0.174,0.1714,0.1679,0.1657,0.1627,0.1593,0.1584,0.1521,0.1501,0.147,0.1447,0.14,0.1367,0.1324,0.1293,0.1255,0.1247,0.1248,0.1266,0.1287,0.1278,0.1197,0.1246,0.1245,0.1245,0.1244,0.1244,0.1817,0.181,0.1767,0.1739,0.1709,0.1679,0.1666,0.1626,0.16,0.1559,0.1527,0.1499,0.1454,0.1393,0.1364,0.134,0.1323,0.1324,0.1325,0.1327,0.1334,0.1289,0.1331,0.1331,0.1331,0.1331,0.133,0,0.188,0.1849,0.1825,0.1781,0.1759,0.1726,0.1687,0.1671,0.1648,0.1609,0.1581,0.1546,0.1513,0.1462,0.1425,0.1415,0.1397,0.1408,0.1409,0.1403,0.1351,0.1354,0.1423,0.1423,0.1423,0.1423,0.1423,0.1423,0.191,0.1896,0.1867,0.1837,0.1805,0.1779,0.176,0.1732,0.1702,0.1665,0.1638,0.1606,0.1562,0.1521,0.1489,0.1475,0.1465,0.1481,0.1462,0.1415,0.1406,0.1398,0.1401,0.1479,0.1479,0.1516,0.1516,0.1517]},{"header":{"parameterUnit":"m.s-1","parameterCategory":1,"la1":30.2991,"la2":30.254,"lo1":-89.0895,"lo2":-89.0444,"dy":0.0017,"dx":0.0017,"nx":28,"ny":28,"refTime":"2024-12-09T03:00:00:Z","depth":0,"parameterNumber":3,"parameterNumberName":"V-component_of_WINDS"},"data":[0,0,0,0,0,0,0,0,0,0,0,0,0,0,0,0,0,0,0,0,0,0,0,0,0,0,0,0,0,0,0,0,0,0,0,0,0,0,0,0,0,0,0,0,0,0,0,0,0,0,0,0,0,0,0,0,0,0,3.2436,3.2437,0,3.261,3.2612,3.2614,3.265,3.2649,3.2648,3.2646,3.2826,3.2832,3.2838,0,0,0,0,0,0,0,0,0,0,0,0,0,3.2132,3.2137,3.2435,3.2438,3.244,3.261,3.2613,3.2615,3.2651,3.2649,3.2647,3.2646,3.2824,3.2831,3.2839,0,0,0,0,0,0,0,0,0,0,0,0,0,3.2281,3.2139,3.2435,3.2478,3.2484,3.261,3.2613,3.2616,3.2651,3.2649,3.2647,3.2645,3.2822,3.2831,3.284,3.2935,0,0,3.2867,3.2871,0,0,0,0,0,0,0,0,3.2272,3.2292,3.247,3.2475,3.2482,3.2607,3.2571,3.2723,3.2651,3.2587,3.2646,3.2644,3.2755,3.2769,3.2806,3.2943,3.2951,3.2868,3.2873,3.2877,3.288,0,0,0,0,0,0,0,3.2262,3.2285,3.2505,3.2472,3.248,3.2489,3.2508,3.26,3.268,3.2593,3.2596,3.2616,3.2758,3.2798,3.2811,3.2954,3.2868,3.2876,3.2881,3.2885,3.3179,3.3181,0,0,0,0,0,0,3.2244,3.2276,3.2499,3.251,3.237,3.2496,3.2517,3.2569,3.2679,3.2694,3.2618,3.2617,3.2783,3.28,3.2817,3.2938,3.2877,3.2886,3.2891,3.3176,3.3179,3.3182,0,0,0,0,0,0,3.2237,3.2264,3.2492,3.2394,3.2424,3.2503,3.2561,3.2573,3.2613,3.2698,3.2712,3.2644,3.2782,3.2805,3.2906,3.2945,3.289,3.2898,3.3173,3.3177,3.318,3.3179,0,0,0,0,0,0,3.2229,3.2261,3.2298,3.2394,3.2429,3.2578,3.2563,3.2578,3.2629,3.263,3.2726,3.274,3.2782,3.2892,3.2915,3.2956,3.2905,3.317,3.3175,3.3179,3.3176,3.3182,3.3187,0,0,0,0,0,3.2218,3.2291,3.23,3.2327,3.2477,3.258,3.26,3.2646,3.2631,3.267,3.2724,3.2737,3.2936,3.2902,3.2928,3.2973,3.3168,3.3174,3.3179,3.3173,3.3181,3.3187,0,0,0,0,0,0,3.2198,3.2305,3.2316,3.2423,3.2492,3.2586,3.2636,3.2652,3.2728,3.2726,3.278,3.2802,3.29,3.2946,3.2906,3.3071,3.3051,3.3062,3.3038,3.3046,3.3051,3.304,3.2912,0,0,0,0,0,3.2206,3.2281,3.2369,3.2455,3.2489,3.2556,3.2603,3.2632,3.2707,3.2736,3.2798,3.287,3.2948,3.2999,3.3076,3.3181,3.3204,3.3225,3.323,3.3234,3.3244,3.3305,3.3315,3.3199,3.3199,3.3199,0,0,3.2224,3.2291,3.2335,3.2453,3.251,3.2587,3.2581,3.2662,3.2719,3.2749,3.2849,3.2896,3.2979,3.3083,3.3132,3.3125,3.328,3.3241,3.3244,3.3252,3.3311,3.3322,3.3332,3.3203,3.3202,3.3202,0,0,3.2296,3.2354,3.2432,3.2489,3.2576,3.2619,3.2638,3.2729,3.2762,3.2862,3.2886,3.2955,3.3088,3.3147,3.3195,3.3287,3.3302,3.331,3.3341,3.3399,3.3408,3.3416,3.3451,3.3463,3.3318,3.3318,3.3318,0,3.2308,3.2425,3.247,3.2551,3.2602,3.263,3.2711,3.2763,3.2871,3.2905,3.2895,3.3064,3.3121,3.324,3.3262,3.3299,3.3323,3.3301,3.3403,3.3412,3.342,3.3454,3.3467,3.3319,3.3319,3.3319,3.3319,0,3.2435,3.2515,3.2568,3.2671,3.2727,3.2807,3.2865,3.2916,3.294,3.2985,3.3087,3.3157,3.3249,3.3278,3.3302,3.34,3.3393,3.3392,3.3374,3.3431,3.3464,3.3477,3.332,3.332,3.3319,3.3319,0,0,3.2505,3.263,3.2649,3.2696,3.2792,3.2855,3.2934,3.3024,3.3068,3.314,3.321,3.3321,3.332,3.3374,3.3404,3.3455,3.3525,3.3448,3.345,3.3462,3.3639,3.3642,3.3657,3.3534,3.3537,3.3539,3.3633,0,3.2591,3.2736,3.2778,3.29,3.2975,3.3002,3.3072,3.3138,3.3181,3.3251,3.3298,3.3378,3.3369,3.3402,3.3453,3.3506,3.3562,3.3499,3.3601,3.3604,3.3583,3.3674,3.3677,3.3763,3.3646,3.3648,3.365,0,3.2712,3.2786,3.2915,3.3002,3.3035,3.3097,3.3182,3.3248,3.3323,3.3351,3.341,3.3435,3.352,3.3494,3.3612,3.3568,3.3612,3.3644,3.3648,3.3663,3.3633,3.3693,3.3791,3.3805,3.367,3.3669,3.3667,0,3.2753,3.2884,3.2979,3.3018,3.312,3.3164,3.3208,3.3281,3.3332,3.3406,3.344,3.3522,3.3568,3.3631,3.3679,3.3655,3.3793,3.3771,3.382,3.3819,3.3851,3.3849,3.3961,3.3873,3.3873,3.3873,3.3873,0,3.2847,3.2926,3.2999,3.3058,3.3146,3.3193,3.328,3.3326,3.339,3.3458,3.3485,3.3548,3.3605,3.3676,3.3712,3.3806,3.3825,3.3851,3.3861,3.3851,3.3848,3.3883,3.3879,3.3876,3.3876,3.3875,3.3874,0,3.291,3.2962,3.3067,3.3154,3.3178,3.324,3.3315,3.3373,3.3415,3.3501,3.3523,3.3591,3.3675,3.3727,3.3834,3.3859,3.3962,3.3968,3.3937,3.3943,3.399,3.3986,3.4131,3.4153,3.4047,3.4048,3.4049,0,3.2969,3.3031,3.3124,3.3171,3.3216,3.3291,3.3343,3.339,3.3443,3.3533,3.358,3.3666,3.3738,3.3871,3.393,3.4012,3.4022,3.4066,3.4034,3.4023,3.4026,3.4023,3.403,3.4073,3.4074,3.4075,3.4075,0,3.3069,3.3091,3.3165,3.3247,3.3307,3.3375,3.3441,3.3478,3.3537,3.3595,3.3681,3.3736,3.3845,3.3931,3.4017,3.4063,3.408,3.4084,3.4101,3.4093,3.4074,3.4088,3.3956,3.4082,3.4081,3.4081,3.408,3.408,3.3135,3.319,3.3265,3.3345,3.34,3.3461,3.352,3.3569,3.3642,3.3734,3.3757,3.3848,3.392,3.4038,3.4086,3.4157,3.4151,3.4174,3.4181,3.4186,3.4189,3.4059,3.4173,3.4173,3.4173,3.4173,3.4172,0,3.3239,3.3287,3.336,3.3453,3.3516,3.3523,3.3597,3.365,3.3729,3.3795,3.3865,3.3964,3.4046,3.411,3.4194,3.4239,3.4249,3.426,3.426,3.427,3.4188,3.4167,3.4251,3.4251,3.4251,3.4251,3.4251,3.4251,3.3301,3.3396,3.3426,3.3548,3.3596,3.3685,3.3727,3.3783,3.3836,3.3946,3.4014,3.4054,3.412,3.4208,3.4284,3.4301,3.4332,3.4342,3.4361,3.4284,3.4276,3.4268,3.4248,3.4348,3.4348,3.4437,3.4438,3.4438]}]]